sat.trackr.live / text

‹ back to catalog

BEIJING 1

NORAD 28890 · 2005-043A

PAYLOAD ACTIVE UNKNOWN

§ Identity

Operator
Country
PRC
Launch date
2005-10-27
Launch site
PLMSC
Launch vehicle
Mass (kg)
RCS (m²)
0.35

Purposes: earth_obs

External: N2YO · Heavens-Above · Gunter

§ Orbital elements

Epoch: 2026-05-25T04:17:24.697248Z

Period
98.39 min
Inclination
98.2878°
Eccentricity
0.0014602
Mean motion
14.63515476 rev/d
Perigee alt
671.5 km
Apogee alt
692.2 km
Semi-major
7,060.0 km
B*
1.2873e-5
RAAN
278.2673°
Arg perigee
359.0693°
Mean anomaly
1.0479°
Rev number
9,728

§ Raw data

BEIJING 11 28890U 05043A   26145.17875807  .00000017  00000+0  12873-4 0  99922 28890  98.2878 278.2673 0014602 359.0693   1.0479 14.63515476 97283

JSON: /api/v1/satellites/28890 · /tle

For live sub-satellite position, see the globe view (requires WebGL).

§ Visibility from observer

Set your observer location to see the next 7 days of passes ≥ 10°. The values pass through the URL so the page stays shareable.

No JS? Fill the form by hand. The geolocation button needs JavaScript.